Location: Cerda�ola
(41.4919°N, 2.1403°E)
Time: 01:40:04
(UTC+00:00)

ISS - Pass Details

Date: 29 March 2020
Orbit: 417 x 419 km, 51.6° (Epoch: 28 May)

Event Time Altitude Azimuth Distance (km) Brightness Sun altitude
Rises 19:36:39 0° 307° (NW) 2,367 1.6 -15.9°
Reaches altitude 10° 19:39:17 10° 328° (NNW) 1,501 -0.2 -16.4°
Maximum altitude 19:41:35 17° 11° (NNE) 1,148 -1.5 -16.8°
Enters shadow 19:42:53 14° 39° (NE) 1,272 -1.5 -17.0°
